STARLINK-5636, 55454

Orbit data source: Space-Track

STARLINK-5636, 55454 is a payload satellite owned by SpaceX/Seattle (US) in LEO that was launched on Thu, 02 Feb 2023 UTC via an FALCON 9 launch vehicle from the Air Force Eastern Test Range (AFETR). Payload-class satellites include a variety of spacecraft equipped with specific instruments for various scientific and technological missions. These include communications satellites like Starlink; space stations such as the ISS; scientific satellites like the Hubble; Earth observation satellites from companies like Planet Labs, Umbra, and HawkEye 360; GPS; miniature CubeSats for education and research; and military/defense satellites.

Loading next visibility...
Identifier
55454, 2023-015F
Orbit
LEO
Country
Flag of USUS
Related business
Manufacturer
SpaceX/Seattle
Mission
Operational Commercial Communications
Bus & Motor
STARLINK, Unknown motor
Mass
305 kg wet, ~290 kg dry
Launch date (UTC)
2023-02-02 (3 years ago)
Launch vehicle
FALCON 9
Launch site
Air Force Eastern Test Range (AFETR)
Object type
Payload
Rocket body
Debris
Shape & HBR
Box + 1 Pan, 10.1 m
Radar Cross Section
13.562 m², Large (>1 m²)

Expand to show TLE details & history
Last TLE update: 12 hours ago

TLE from 12 hours ago
0 STARLINK-5636
1 55454U 23015F   25288.64850646  .00001529  00000-0  12827-3 0  9998
2 55454  43.0018  34.2990 0000990 265.2166  94.8563 15.02533988148938
Epoch: 2025-10-15T15:33Z
TLE epoch observation values (Epoch: 2025-10-15T15:33:50.958Z)
Latitude
-0.00002°
Longitude
136.41709°
Altitude
558.922 km
Speed
7.584 km/s
True Right ascension
02h 17m 11s
True Declination
0° 00' 00"
Sunlit
Object was in full shadow at epoch
Visualization orbit readout
Latitude
Unknown
Longitude
Unknown
Altitude
Unknown
Speed
Unknown
Apparent Right ascension
Unknown
Apparent Declination
Unknown
Sunlit
N/A
Visualization observer readout
Local Sidereal Time
22:02:36
Azimuth
Unknown
Elevation
Unknown
Doppler factor
Unknown
Orbital elements
Apogee altitude
561.696 km
Perigee altitude
560.322 km
Semi-major axis
6,939.146 km
Eccentricity
0.0001
Inclination
43.0018°
RAAN
34.299°
Arg. of periapsis
265.2166°
True anomaly
94.8676°
Mean anomaly
94.8563°
Eccentric anomaly
94.86195°
Mean motion
3.75478 °/min
Orbital period
95.88 mins
BSTAR
0.00012827
Loading maneuver chart data...
Computing Atmospheric mass density...
Loading historical data...
Loading historical data...
Loading historical data...
Loading historical data...
Loading historical data...
Loading historical data...
Loading historical data...

Documentation

Showing up to 5 results
|